Tracking 18673 objects as of 25-June-2017
HD Live streaming from Space Station
objects crossing your sky now

SCOUT B-1 R/B

Track SCOUT B-1 R/B now!
10-day predictions


NORAD ID: 5438
Int'l Code: 1971-071B
Perigee: 632.3 km
Apogee: 784.6 km
Inclination: 50.1 °
Period: 98.8 minutes
Semi major axis: 7079 km
RCS: 0.747 m2 (medium)
Launch date: August 16, 1971
Source: United States (US)
Launch site: WALLOPS ISLAND (WLPIS)

Note: This is a ROCKET BODY
Your satellite tracking list
Your tracking list is empty





NASA's NSSDC Master Catalog

Two Line Element Set (TLE):
1  5438U 71071B   17175.60349480 -.00000104 +00000-0 +20298-4 0  9992
2  5438 050.1486 034.5961 0107582 234.9976 124.0818 14.57489774400124
Source of the keplerian elements: AFSPC